This demonstration page uses our WeatherBlox Daily Observations layout. Learn more.

Hourly Observations for March 18, 2019

Temp ( °F °C ) Dew Point ( °F °C ) Humidity (%) Winds ( mph kmh ) Pressure ( in mb ) Visibility ( mi km ) Precip ( " mm )
12:15 am 00:15 Clear 32 0 27 -2.8 82 82 NNE 8 13 30.5 1033 10 16.09344 0 0
12:35 am 00:35 Clear 33 0.3 26 -3.1 78 78 NNE 8 13 30.5 1033 10 16.09344 0 0
12:55 am 00:55 Clear 32 0.1 27 -3 80 80 N 8 13 30.5 1033 10 16.09344 0 0
1:15 am 01:15 Clear 32 0 27 -3 80 80 NNE 10 17 30.5 1033 10 16.09344 0 0
1:35 am 01:35 Clear 31 -0.3 26 -3.3 80 80 NNE 9 15 30.5 1033 10 16.09344 0 0
1:55 am 01:55 Clear 31 -0.6 26 -3.5 81 81 NNE 9 15 30.5 1033 10 16.09344 0 0
2:15 am 02:15 Clear 31 -0.8 26 -3.5 82 82 NNE 8 13 30.5 1033 10 16.09344 0 0
2:35 am 02:35 Clear 30 -1.1 26 -3.6 83 83 NNE 8 13 30.5 1033 10 16.09344 0 0
2:55 am 02:55 Clear 29 -1.5 25 -3.7 85 85 NNE 5 7 30.5 1033 10 16.09344 0 0
3:15 am 03:15 Clear 28 -2 25 -4 86 86 Calm 30.53 1034 10 16.09344 0 0
3:35 am 03:35 Clear 29 -1.7 25 -3.9 85 85 Calm 30.5 1033 10 16.09344 0 0
3:55 am 03:55 Clear 28 -2.2 24 -4.2 86 86 NW 3 6 30.53 1034 10 16.09344 0 0
4:15 am 04:15 Clear 27 -2.9 24 -4.6 88 88 Calm 30.53 1034 10 16.09344 0 0
4:35 am 04:35 Clear 28 -2.5 24 -4.3 88 88 NW 3 6 30.53 1034 10 16.09344 0 0
4:55 am 04:55 Clear 28 -2.5 25 -4 90 90 NNW 3 6 30.53 1034 10 16.09344 0 0
5:15 am 05:15 Clear 27 -2.6 25 -4.1 90 90 WNW 5 7 30.53 1034 10 16.09344 0 0
5:35 am 05:35 Clear 27 -2.6 25 -4.1 90 90 NW 5 7 30.53 1034 10 16.09344 0 0
5:55 am 05:55 Clear 27 -2.7 25 -4.1 90 90 W 5 7 30.53 1034 10 16.09344 0 0
6:15 am 06:15 Clear 27 -2.6 25 -4 90 90 NW 6 9 30.53 1034 10 16.09344 0 0
6:35 am 06:35 Clear 27 -3 24 -4.5 90 90 N 3 6 30.53 1034 10 16.09344 0 0
6:55 am 06:55 Clear 28 -2.5 25 -3.8 91 91 Calm 30.53 1034 10 16.09344 0 0
7:15 am 07:15 Clear 27 -2.7 25 -4.1 90 90 Calm 30.53 1034 10 16.09344 0 0
7:35 am 07:35 Clear 27 -2.8 24 -4.2 90 90 WSW 3 6 30.53 1034 10 16.09344 0 0
7:55 am 07:55 Sunny 27 -2.7 25 -4 91 91 Calm 30.53 1034 10 16.09344 0 0
8:15 am 08:15 Sunny 27 -2.8 25 -4.1 91 91 Calm 30.53 1034 10 16.09344 0 0
8:35 am 08:35 Sunny 28 -2 26 -3.2 92 92 Calm 30.53 1034 10 16.09344 0 0
8:55 am 08:55 Sunny 29 -1.5 26 -3.2 88 88 NE 7 11 30.5 1033 10 16.09344 0 0
9:15 am 09:15 Sunny 30 -1 26 -3.3 85 85 NE 5 7 30.5 1033 10 16.09344 0 0
9:35 am 09:35 Sunny 31 -0.5 26 -3.6 80 80 E 3 6 30.5 1033 10 16.09344 0 0
9:55 am 09:55 Sunny 32 0 26 -3.5 78 78 E 5 7 30.5 1033 10 16.09344 0 0
10:15 am 10:15 Sunny 33 0.8 26 -3.4 74 74 SE 6 9 30.5 1033 10 16.09344 0 0
10:35 am 10:35 Sunny 34 1 26 -3.2 74 74 SSE 6 9 30.5 1033 10 16.09344 0 0
10:55 am 10:55 Sunny 35 1.5 25 -3.7 69 69 ESE 7 11 30.48 1032 10 16.09344 0 0
11:15 am 11:15 Sunny 36 2.3 26 -3.3 67 67 SSE 6 9 30.48 1032 10 16.09344 0 0
11:35 am 11:35 Sunny 37 2.8 26 -3.6 63 63 SSE 5 7 30.48 1032 10 16.09344 0 0
11:55 am 11:55 Sunny 38 3.5 26 -3.6 60 60 SSE 8 13 30.48 1032 10 16.09344 0 0
12:15 pm 12:15 Sunny 39 3.9 24 -4.6 54 54 SSE 7 11 30.48 1032 10 16.09344 0 0
12:35 pm 12:35 Sunny 39 4.1 23 -4.9 52 52 S 8 13 30.45 1031 10 16.09344 0 0
12:55 pm 12:55 Sunny 40 4.4 23 -5.2 50 50 SSE 9 15 30.45 1031 10 16.09344 0 0
1:15 pm 13:15 Sunny 40 4.6 24 -4.3 53 53 SSE 8 13 30.45 1031 10 16.09344 0 0
1:35 pm 13:35 Sunny 41 4.8 25 -3.9 54 54 SSE 8 13 30.42 1030 10 16.09344 0 0
1:55 pm 13:55 Sunny 42 5.5 27 -2.6 56 56 SSE 8 13 30.42 1030 10 16.09344 0 0
2:15 pm 14:15 Sunny 42 5.5 28 -2.5 57 57 SSE 7 11 30.42 1030 10 16.09344 0 0
2:35 pm 14:35 Partly Cloudy 42 5.8 28 -2.1 57 57 S 8 13 30.39 1029 10 16.09344 0 0
2:55 pm 14:55 Partly Cloudy 43 6.2 29 -1.6 58 58 SSE 10 17 30.39 1029 10 16.09344 0 0
3:15 pm 15:15 Partly Cloudy 44 6.6 29 -1.4 57 57 SSE 8 13 30.33 1027 10 16.09344 0 0
3:35 pm 15:35 Partly Cloudy 45 7 29 -1.8 54 54 SSW 7 11 30.33 1027 10 16.09344 0 0
3:55 pm 15:55 Partly Cloudy 44 6.9 28 -2.5 52 52 SE 7 11 30.33 1027 10 16.09344 0 0
4:15 pm 16:15 Partly Cloudy 45 7 28 -2.3 52 52 SSE 9 15 30.3 1026 10 16.09344 0 0
4:35 pm 16:35 Mostly Cloudy 45 7.1 28 -2.2 52 52 SSE 9 15 30.3 1026 10 16.09344 0 0
4:55 pm 16:55 Cloudy 45 7 28 -2.5 51 51 S 5 7 30.3 1026 10 16.09344 0 0
5:15 pm 17:15 Cloudy 45 7.1 28 -2.3 52 52 SSE 8 13 30.3 1026 10 16.09344 0 0
5:35 pm 17:35 Cloudy 45 7 28 -2.1 53 53 SSE 6 9 30.3 1026 10 16.09344 0 0
5:55 pm 17:55 Cloudy 45 7 29 -1.7 54 54 SSE 8 13 30.3 1026 10 16.09344 0 0
6:15 pm 18:15 Cloudy 44 6.8 29 -1.4 56 56 SE 7 11 30.27 1025 10 16.09344 0 0
6:35 pm 18:35 Cloudy 44 6.7 29 -1.5 56 56 SE 8 13 30.27 1025 10 16.09344 0 0
6:55 pm 18:55 Cloudy 44 6.5 30 -1.2 58 58 SE 7 11 30.27 1025 10 16.09344 0 0
7:15 pm 19:15 Cloudy 43 6.3 30 -1 60 60 SE 7 11 30.27 1025 10 16.09344 0 0
7:35 pm 19:35 Cloudy 43 6.2 31 -0.6 62 62 SE 8 13 30.27 1025 10 16.09344 0 0
7:55 pm 19:55 Cloudy 43 6.1 31 -0.5 63 63 SSE 7 11 30.27 1025 10 16.09344 0 0
8:15 pm 20:15 Cloudy 42 5.7 32 -0.2 66 66 Calm 30.33 1027 10 16.09344 0 0
8:35 pm 20:35 Cloudy 42 5.5 32 0 68 68 Calm 30.33 1027 10 16.09344 0 0
8:55 pm 20:55 Cloudy 41 5.1 32 0 70 70 ESE 5 7 30.3 1026 10 16.09344 0 0
9:15 pm 21:15 Cloudy 41 5 33 0.3 72 72 E 6 9 30.3 1026 10 16.09344 0 0
9:35 pm 21:35 Cloudy 41 5 33 0.3 72 72 ESE 5 7 30.3 1026 10 16.09344 0 0
9:55 pm 21:55 Cloudy 42 5.3 32 0 69 69 ESE 7 11 30.3 1026 10 16.09344 0 0
10:15 pm 22:15 Cloudy 41 5.1 32 0 70 70 E 7 11 30.3 1026 10 16.09344 0 0
10:35 pm 22:35 Cloudy 41 5 32 0 70 70 E 8 13 30.3 1026 10 16.09344 0 0
10:55 pm 22:55 Cloudy 40 4.7 32 0 72 72 E 7 11 30.3 1026 10 16.09344 0 0
11:15 pm 23:15 Cloudy 40 4.3 32 0 74 74 E 6 9 30.3 1026 10 16.09344 0 0
11:35 pm 23:35 Cloudy 40 4.3 32 0 74 74 E 7 11 30.3 1026 10 16.09344 0 0
11:55 pm 23:55 Cloudy 40 4.4 32 -0.2 72 72 ESE 8 13 30.3 1026 10 16.09344 0 0

Powered by AerisWeather